Regional Weather Roundup
Issued by NWS Cleveland, OH

Home | Current Version | Previous Version | Text Only | Print | Product List | Glossary Off
Versions: 1 2 3 4 5 6 7 8 9 10 11 12 13 14 15 16 17 18 19 20 21 22 23 24 25 26 27 28 29 30 31 32 33 34 35 36 37 38 39 40 41 42 43 44 45 46 47 48 49 50

000
ASUS41 KCLE 171602
RWRCLE
OHIO REGIONAL WEATHER ROUNDUP
NATIONAL WEATHER SERVICE CLEVELAND, OH
1200 PM EDT THU APR 17 2014

NOTE: "FAIR" INDICATES FEW OR NO CLOUDS BELOW 12,000 FEET WITH NO
SIGNIFICANT WEATHER AND/OR OBSTRUCTIONS TO VISIBILITY.

OHZ001>008-015>018-024>027-034-035-043-044-171700-
   NORTHWEST OHIO

CITY           SKY/WX    TMP DP  RH WIND       PRES   REMARKS
DEFIANCE       SUNNY     57  32  38 S9G17     30.30F
FINDLAY        SUNNY     57  34  41 S13       30.32S
TOLEDO EXPRESS SUNNY     55  30  38 SW10      30.31F
TOLEDO EXEC    SUNNY     56  31  38 S13       30.33F
LIMA           SUNNY     58  34  40 S10       30.31F
$$

OHZ009>014-019>023-028>033-038-089-171700-
   NORTHEAST OHIO

CITY           SKY/WX    TMP DP  RH WIND       PRES   REMARKS
CLE-HOPKINS    MOSUNNY   56  29  35 S15       30.39F
CLE-LAKEFRONT  PTSUNNY   54  27  35 S17G23    30.36S
CUY CO. ARPT   MOSUNNY   54  27  35 MISG      30.39
LORAIN-ELYRIA  SUNNY     57  32  38 S15       30.36F
ASHTABULA      SUNNY     50  25  37 SE15G24   30.42F
AKRON-CANTON   PTSUNNY   54  24  31 SE14      30.40S
WOOSTER        SUNNY     54  30  40 S15       30.38F
MANSFIELD      SUNNY     55  32  41 S14       30.36S
YOUNGSTOWN     PTSUNNY   51  23  33 SE10G20   30.42F
$$

OHZ042-051>053-060>062-070>072-077>081-171700-
  SOUTHWEST OHIO

CITY           SKY/WX    TMP DP  RH WIND       PRES   REMARKS
CINC-COVINGTON MOSUNNY   60  34  37 S12G17    30.36R
CINC-LUNKEN    SUNNY     60  35  39 SW9G20    30.37S
HAMILTON       SUNNY     63  35  35 S10       30.36S
DAYTON         MOSUNNY   59  35  40 SW13G22   30.35R
WRIGHT-PAT AFB SUNNY     60  33  37 SW13      30.35R
DAYTON GENERAL SUNNY     58  34  40 S14       30.34S
WILMINGTON     SUNNY     59  32  36 S14G23    30.36R
$$

OHZ036-037-039>041-045>050-054>059-063>069-073>076-082>088-171700-
  CENTRAL AND SOUTHEAST OHIO

CITY           SKY/WX    TMP DP  RH WIND       PRES   REMARKS
COLUMBUS       MOSUNNY   59  30  33 SW10      30.38S
OSU AIRPORT    SUNNY     60  32  34 S13       30.37S
BOLTON FIELD   SUNNY     57  34  41 SW15G21   30.38S
RICKENBACK AFB NOT AVBL
NEWARK         SUNNY     58  29  33 S13       30.38F
MARION         SUNNY     57  32  38 SW16G22   30.36R
LANCASTER      SUNNY     59  31  34 SW10      30.39S
ZANESVILLE     SUNNY     57  27  31 SW6       30.41S
NEW PHILLY     MOSUNNY   55  25  31 S10       30.42F
$$



USA.gov is the U.S. government's official web portal to all federal, state and local government web resources and services.